Showing default

OPTUS D2, 32252

Orbit data source: Space-Track

OPTUS D2, 32252 is a payload satellite owned by SingTel Optus (AU) in GEO that was launched on Fri, 05 Oct 2007 UTC via an ARIANE 5GS launch vehicle from the French Guiana (FRGUI). Payload-class satellites include a variety of spacecraft equipped with specific instruments for various scientific and technological missions. These include communications satellites like Starlink; space stations such as the ISS; scientific satellites like the Hubble; Earth observation satellites from companies like Planet Labs, Umbra, and HawkEye 360; GPS; miniature CubeSats for education and research; and military/defense satellites.

Loading next visibility...
Identifier
32252, 2007-044A
Orbit
GEO
Country
Flag of AUAU / AUS
Related business
Manufacturer
OSC
Mission
Operational Commercial Communications
Bus & Motor
OSC STAR 2.4, BT-4
Mass
2,350 kg wet, 1,079 kg dry
Launch date (UTC)
2007-10-05 (18 years ago)
Launch vehicle
ARIANE 5GS
Launch site
French Guiana (FRGUI)
Object type
Payload
Rocket body
Debris
Shape & HBR
Box + 2 Pan, 11.2 m
Radar Cross Section
24.712 m², Large (>1 m²)

Expand to show TLE details & history
Last TLE update: 17 hours ago

TLE from 17 hours ago
0 OPTUS D2
1 32252U 07044A   25293.53494465 -.00000078  00000-0  00000-0 0  9996
2 32252   1.4520  84.9661 0003217 128.8591 283.4410  0.99341093 66168
Epoch: 2025-10-20T12:50Z
TLE epoch observation values (Epoch: 2025-10-20T12:50:19.217Z)
Latitude
1.12249°
Longitude
-84.62309°
Altitude
36,045.696 km
Speed
3.065 km/s
True Right ascension
09h 08m 46s
True Declination
1° 07' 17"
Sunlit
Object was in daylight at epoch
Visualization orbit readout
Latitude
Unknown
Longitude
Unknown
Altitude
Unknown
Speed
Unknown
Apparent Right ascension
Unknown
Apparent Declination
Unknown
Sunlit
N/A
Visualization observer readout
Local Sidereal Time
01:15:02
Azimuth
Unknown
Elevation
Unknown
Doppler factor
Unknown
Orbital elements
Apogee altitude
36,064.249 km
Perigee altitude
36,036.95 km
Semi-major axis
42,428.737 km
Eccentricity
0.00032
Inclination
1.452°
RAAN
84.9661°
Arg. of periapsis
128.8591°
True anomaly
283.40514°
Mean anomaly
283.441°
Eccentric anomaly
283.42307°
Mean motion
0.24834 °/min
Orbital period
1,449.6 mins
BSTAR
0
Loading maneuver chart data...
Computing Atmospheric mass density...
Loading historical data...
Loading historical data...
Loading historical data...
Loading historical data...
Loading historical data...
Loading historical data...
Loading historical data...
Other satellites on launch #44 in the year 2007 (2007-10-05 UTC)

Documentation

Showing up to 5 results
|